User: anonymous   Login
Location: Bothwell
(42.3833°S, 147.0000°E)
Time: 00:48:50
(UTC+10:00)
Language:

AO-109 - Orbit

View from above orbital plane
View from above orbital plane
View from above satellite
View from above satellite

Ground track
Ground track

The orbit data is extracted from the following two-line orbital elements,

1 47311U 21002C   22273.63081759  .00012008  00000-0  45427-3 0  9992
2 47311  60.6851 325.8814 0034366  45.3966 314.9917 15.26835271 94513
Epoch (UTC): 30 September 2022 15:08:22
Eccentricity: 0.0034366
inclination: 60.6851°
perigee height: 462 km
apogee height: 509 km
right ascension of ascending node: 325.8814°
argument of perigee: 45.3966°
revolutions per day: 15.26835271
mean anomaly at epoch: 314.9917°
orbit number at epoch: 9451

The dashed part of the orbit path shows where the satellite is in the earth's shadow,  

DLR